[[{"header":{"parameterUnit":"m.s-1","parameterCategory":1,"la1":30.2991,"la2":30.254,"lo1":-89.0895,"lo2":-89.0444,"dy":0.0017,"dx":0.0017,"nx":28,"ny":28,"refTime":"2024-03-20T21:00:00:Z","depth":0,"parameterNumber":2,"parameterNumberName":"U-component_of_WINDS"},"data":[0,0,0,0,0,0,0,0,0,0,0,0,0,0,0,0,0,0,0,0,0,0,0,0,0,0,0,0,0,0,0,0,0,0,0,0,0,0,0,0,0,0,0,0,0,0,0,0,0,0,0,0,0,0,0,0,0,0,1.4911,1.4913,0,1.5065,1.5067,1.5068,1.5104,1.5103,1.5101,1.51,1.526,1.5265,1.527,0,0,0,0,0,0,0,0,0,0,0,0,0,1.4649,1.4653,1.4911,1.4913,1.4915,1.5065,1.5067,1.5069,1.5104,1.5102,1.5101,1.51,1.5258,1.5264,1.5271,0,0,0,0,0,0,0,0,0,0,0,0,0,1.4779,1.4655,1.4911,1.495,1.4955,1.5064,1.5067,1.5069,1.5104,1.5102,1.5101,1.5099,1.5256,1.5264,1.5272,1.5352,0,0,1.5296,1.5299,0,0,0,0,0,0,0,0,1.4771,1.4788,1.4943,1.4948,1.4954,1.5063,1.5033,1.5164,1.5104,1.5048,1.51,1.5099,1.5196,1.5209,1.5241,1.536,1.5367,1.5296,1.5301,1.5305,1.5307,0,0,0,0,0,0,0,1.4762,1.4782,1.4972,1.4945,1.4952,1.4961,1.4977,1.5058,1.5129,1.5053,1.5055,1.5073,1.5199,1.5233,1.5245,1.5369,1.5296,1.5303,1.5308,1.5311,1.556,1.5562,0,0,0,0,0,0,1.4746,1.4774,1.4967,1.4977,1.4857,1.4967,1.4985,1.503,1.5128,1.5142,1.5074,1.5074,1.5221,1.5236,1.5251,1.5351,1.5304,1.5312,1.5316,1.5559,1.5561,1.5563,0,0,0,0,0,0,1.474,1.4763,1.4961,1.4876,1.4902,1.4973,1.5023,1.5034,1.5068,1.5145,1.5158,1.5097,1.522,1.524,1.5326,1.5357,1.5315,1.5323,1.5556,1.5559,1.5562,1.5551,0,0,0,0,0,0,1.4733,1.4761,1.4792,1.4877,1.4906,1.5033,1.5024,1.5038,1.5082,1.5083,1.5169,1.5182,1.522,1.5314,1.5334,1.5367,1.5329,1.5554,1.5558,1.5561,1.5549,1.5553,1.5557,0,0,0,0,0,1.4723,1.4783,1.4793,1.4816,1.4947,1.5035,1.5052,1.5095,1.5084,1.5116,1.5165,1.5179,1.535,1.5323,1.5346,1.5381,1.5552,1.5557,1.5561,1.5547,1.5553,1.5557,0,0,0,0,0,0,1.4701,1.4795,1.4807,1.4897,1.4957,1.5041,1.5082,1.5099,1.5165,1.5163,1.5214,1.5233,1.5316,1.5358,1.5325,1.5464,1.5451,1.546,1.5433,1.5439,1.5443,1.543,1.5335,0,0,0,0,0,1.4707,1.477,1.4849,1.492,1.495,1.5011,1.5051,1.5078,1.5144,1.517,1.5225,1.5288,1.5356,1.54,1.5467,1.5556,1.5574,1.5591,1.5595,1.5598,1.5605,1.5653,1.5661,1.5577,1.5577,1.5577,0,0,1.4719,1.4778,1.4815,1.4918,1.4968,1.5032,1.5032,1.5101,1.5149,1.5181,1.5265,1.5308,1.5382,1.5469,1.551,1.5506,1.5632,1.5603,1.5605,1.561,1.5658,1.5666,1.5673,1.558,1.5579,1.5579,0,0,1.4774,1.4825,1.4889,1.494,1.5015,1.5055,1.5071,1.5152,1.5181,1.5266,1.529,1.5349,1.5466,1.5517,1.5558,1.5631,1.5646,1.5652,1.5671,1.5718,1.5725,1.5731,1.5756,1.5764,1.5658,1.5658,1.5658,0,1.4779,1.4877,1.4921,1.4988,1.5031,1.5062,1.5127,1.5174,1.5268,1.5298,1.5292,1.5437,1.549,1.5589,1.5606,1.5639,1.5658,1.5641,1.572,1.5727,1.5733,1.5757,1.5766,1.5658,1.5658,1.5658,1.5658,0,1.4879,1.4946,1.4989,1.5078,1.5127,1.5193,1.5247,1.5291,1.5314,1.5355,1.5441,1.5504,1.5584,1.561,1.5634,1.5712,1.5707,1.571,1.5698,1.574,1.5764,1.5773,1.5658,1.5658,1.5658,1.5658,0,0,1.4924,1.5035,1.505,1.509,1.5176,1.5229,1.5296,1.5373,1.5409,1.5473,1.553,1.5628,1.563,1.5677,1.5707,1.5748,1.58,1.5747,1.5749,1.5753,1.5889,1.5885,1.5895,1.5811,1.5813,1.5815,1.5882,0,1.4988,1.5107,1.5149,1.5248,1.531,1.534,1.5398,1.5457,1.5496,1.5555,1.5599,1.5667,1.5666,1.5694,1.5737,1.5785,1.5828,1.5781,1.5864,1.5867,1.5843,1.5908,1.5904,1.5964,1.5892,1.5894,1.5895,0,1.5078,1.5142,1.5247,1.5323,1.5351,1.5402,1.5476,1.5532,1.5599,1.5625,1.5676,1.5703,1.5774,1.5759,1.5857,1.5824,1.5861,1.589,1.5893,1.5901,1.5882,1.5916,1.5985,1.5993,1.591,1.5909,1.5908,0,1.5098,1.521,1.5287,1.5321,1.5413,1.5448,1.5488,1.5554,1.5597,1.5661,1.569,1.5762,1.5801,1.5856,1.5902,1.5886,1.5995,1.5984,1.6018,1.6017,1.6039,1.6037,1.6113,1.6065,1.6065,1.6065,1.6064,0,1.5164,1.5227,1.5297,1.5344,1.5415,1.5462,1.5531,1.5573,1.5631,1.5687,1.5718,1.577,1.5827,1.5887,1.5923,1.5998,1.6016,1.6039,1.6047,1.6035,1.6032,1.6059,1.6055,1.6067,1.6067,1.6066,1.6066,0,1.5198,1.5248,1.5333,1.5413,1.5434,1.5483,1.5551,1.5598,1.5639,1.5709,1.5728,1.5792,1.5863,1.5914,1.6007,1.6031,1.6111,1.6121,1.6088,1.6092,1.6123,1.6119,1.6218,1.6233,1.6176,1.6176,1.6177,0,1.5236,1.5284,1.5369,1.5408,1.5448,1.5511,1.5554,1.5603,1.5647,1.5727,1.5764,1.5837,1.5898,1.6011,1.6066,1.6136,1.6147,1.6177,1.6158,1.6143,1.6145,1.6141,1.6146,1.6179,1.6179,1.618,1.618,0,1.5297,1.5319,1.5381,1.5451,1.5503,1.5561,1.5619,1.5649,1.5708,1.5757,1.5829,1.5876,1.597,1.6042,1.6118,1.6159,1.6179,1.6186,1.6197,1.6184,1.6163,1.6173,1.6094,1.6183,1.6183,1.6182,1.6182,1.6182,1.5334,1.5378,1.5444,1.5511,1.556,1.5613,1.5661,1.5707,1.5768,1.5847,1.5873,1.5948,1.6013,1.6117,1.6159,1.6219,1.6217,1.6234,1.6238,1.6241,1.624,1.6154,1.6233,1.6233,1.6233,1.6233,1.6233,0,1.5396,1.5439,1.5501,1.5581,1.5634,1.5648,1.5713,1.5756,1.5821,1.5881,1.594,1.6023,1.6092,1.6153,1.6225,1.6261,1.6272,1.6278,1.6275,1.6284,1.6238,1.622,1.6268,1.6268,1.6268,1.6268,1.6268,1.6268,1.5434,1.5508,1.5538,1.5637,1.5681,1.5754,1.579,1.5839,1.5887,1.5977,1.6035,1.6074,1.6133,1.621,1.6275,1.6291,1.6315,1.6319,1.6337,1.6292,1.6288,1.6284,1.6267,1.6325,1.6325,1.6379,1.6379,1.638]},{"header":{"parameterUnit":"m.s-1","parameterCategory":1,"la1":30.2991,"la2":30.254,"lo1":-89.0895,"lo2":-89.0444,"dy":0.0017,"dx":0.0017,"nx":28,"ny":28,"refTime":"2024-03-20T21:00:00:Z","depth":0,"parameterNumber":3,"parameterNumberName":"V-component_of_WINDS"},"data":[0,0,0,0,0,0,0,0,0,0,0,0,0,0,0,0,0,0,0,0,0,0,0,0,0,0,0,0,0,0,0,0,0,0,0,0,0,0,0,0,0,0,0,0,0,0,0,0,0,0,0,0,0,0,0,0,0,0,3.0033,3.0033,0,3.0025,3.0025,3.0025,3.0008,3.0007,3.0007,3.0007,2.9998,2.9998,2.9998,0,0,0,0,0,0,0,0,0,0,0,0,0,3.0032,3.0032,3.0033,3.0033,3.0032,3.0025,3.0025,3.0025,3.0008,3.0007,3.0007,3.0006,2.9998,2.9998,2.9998,0,0,0,0,0,0,0,0,0,0,0,0,0,3.0029,3.0032,3.0033,3.0023,3.0022,3.0025,3.0025,3.0025,3.0008,3.0007,3.0007,3.0006,2.9998,2.9998,2.9998,3.001,0,0,2.9999,2.9999,0,0,0,0,0,0,0,0,3.0029,3.0029,3.0025,3.0024,3.0023,3.0017,3.0021,3.002,3.0008,3.0013,3.0007,3.0006,3.0005,3.0004,3.0004,3.0009,3.0009,2.9999,2.9999,2.9999,2.9999,0,0,0,0,0,0,0,3.0029,3.0029,3.0029,3.0024,3.0023,3.0019,3.0018,3.0021,3.0012,3.0013,3.0011,3.0011,3.0004,3.0004,3.0004,3.0009,2.9999,2.9999,2.9999,2.9999,3.0022,3.0022,0,0,0,0,0,0,3.0031,3.003,3.003,3.0029,3.0025,3.0019,3.0018,3.0019,3.0012,3.001,3.0011,3.001,3.0004,3.0003,3.0003,3.0015,2.9999,2.9999,2.9999,3.0021,3.0022,3.0023,0,0,0,0,0,0,3.0031,3.0031,3.003,3.0029,3.0029,3.002,3.0021,3.0019,3.0019,3.0011,3.0009,3.0013,3.0003,3.0003,3.0008,3.0015,2.9999,2.9999,3.0021,3.0022,3.0022,3.004,0,0,0,0,0,0,3.0031,3.0031,3.0036,3.0029,3.0029,3.0035,3.0021,3.0019,3.0019,3.0018,3.0012,3.001,3.0003,3.0008,3.0008,3.0015,2.9999,3.002,3.0021,3.0022,3.0038,3.0041,3.0043,0,0,0,0,0,3.0031,3.0041,3.0036,3.0036,3.0034,3.0036,3.0035,3.0027,3.002,3.0024,3.0019,3.001,3.0014,3.0008,3.0009,3.0015,3.002,3.0021,3.0022,3.0037,3.004,3.0043,0,0,0,0,0,0,3.0049,3.004,3.0035,3.0043,3.004,3.0033,3.0038,3.0031,3.003,3.0028,3.0018,3.0017,3.0023,3.002,3.0014,3.0025,3.0015,3.0017,3.0027,3.003,3.0032,3.0033,3.0,0,0,0,0,0,3.0054,3.0056,3.0048,3.0056,3.0055,3.0047,3.0047,3.0041,3.0038,3.0036,3.0031,3.0028,3.0029,3.0029,3.0029,3.0038,3.0036,3.0043,3.0045,3.0047,3.0048,3.0051,3.0054,3.0026,3.0026,3.0026,0,0,3.0064,3.0059,3.0061,3.0059,3.0057,3.0059,3.0046,3.0049,3.005,3.0037,3.0041,3.0037,3.0033,3.004,3.0043,3.0037,3.0055,3.0048,3.005,3.005,3.0053,3.0055,3.0058,3.0027,3.0027,3.0027,0,0,3.0083,3.008,3.0086,3.0083,3.0079,3.0073,3.0075,3.0068,3.0065,3.0069,3.0059,3.0061,3.0062,3.0059,3.0058,3.0075,3.0067,3.0076,3.0087,3.0091,3.0093,3.0095,3.01,3.0102,3.0077,3.0077,3.0077,0,3.0095,3.0098,3.009,3.0093,3.0092,3.008,3.0086,3.0084,3.008,3.0079,3.0074,3.0074,3.0071,3.0076,3.008,3.008,3.0081,3.0076,3.0094,3.0095,3.0097,3.0102,3.0104,3.0078,3.0078,3.0077,3.0077,0,3.0114,3.0116,3.0121,3.0117,3.0117,3.0122,3.0113,3.0114,3.0108,3.0103,3.0107,3.0102,3.01,3.0101,3.0095,3.0106,3.0103,3.0095,3.0085,3.0101,3.0105,3.0107,3.0079,3.0079,3.0078,3.0078,0,0,3.0143,3.0135,3.0137,3.0134,3.0129,3.013,3.0134,3.0132,3.0133,3.0131,3.0133,3.0134,3.0127,3.0126,3.0119,3.0123,3.0136,3.0115,3.0115,3.0118,3.0146,3.0151,3.0153,3.013,3.0131,3.0131,3.0146,0,3.016,3.0166,3.0158,3.0166,3.0167,3.0156,3.0159,3.0156,3.0151,3.0151,3.0146,3.0146,3.0138,3.0136,3.0139,3.0133,3.0141,3.0132,3.0132,3.0132,3.0133,3.0155,3.0161,3.0175,3.0147,3.0148,3.0148,0,3.0181,3.0179,3.0187,3.018,3.0181,3.0184,3.0181,3.0182,3.0178,3.0174,3.0172,3.0165,3.0167,3.0158,3.0161,3.0155,3.0154,3.0152,3.0152,3.0151,3.014,3.0154,3.0179,3.0181,3.0151,3.0151,3.015,0,3.0201,3.0201,3.0205,3.0204,3.0196,3.0198,3.0195,3.0191,3.019,3.0188,3.0187,3.0186,3.0184,3.0183,3.0175,3.0169,3.0179,3.0169,3.0175,3.0175,3.0177,3.0177,3.0201,3.0178,3.0178,3.0178,3.0178,0,3.022,3.0225,3.0214,3.0216,3.0221,3.0212,3.0217,3.0213,3.0209,3.021,3.02,3.0201,3.0191,3.0191,3.0184,3.0187,3.0187,3.0184,3.0182,3.0184,3.0184,3.0183,3.0182,3.0178,3.0178,3.0178,3.0178,0,3.0243,3.0235,3.0239,3.0232,3.023,3.0234,3.0227,3.0229,3.0224,3.0225,3.0225,3.0216,3.0216,3.0208,3.0206,3.0201,3.0206,3.0203,3.0208,3.0206,3.0213,3.0212,3.0237,3.0239,3.0215,3.0215,3.0215,0,3.0255,3.0259,3.0252,3.0252,3.0249,3.025,3.0249,3.024,3.0239,3.0234,3.0237,3.0235,3.0234,3.0233,3.0226,3.0224,3.022,3.0229,3.022,3.0222,3.022,3.0219,3.0219,3.0231,3.0231,3.0232,3.0232,0,3.0278,3.0274,3.0273,3.0271,3.0271,3.0269,3.0266,3.0267,3.0256,3.0256,3.0256,3.0254,3.0252,3.025,3.0247,3.0244,3.0236,3.0235,3.0236,3.0238,3.024,3.0238,3.0212,3.0234,3.0234,3.0234,3.0234,3.0233,3.0295,3.0297,3.0293,3.0292,3.0289,3.0287,3.0288,3.0282,3.0282,3.0279,3.0274,3.0274,3.0269,3.0263,3.0261,3.026,3.0255,3.0257,3.0258,3.0258,3.0259,3.0241,3.0259,3.0259,3.0259,3.0259,3.0259,0,3.0317,3.0313,3.0313,3.0309,3.0308,3.0301,3.0298,3.0298,3.0298,3.0294,3.0293,3.0291,3.029,3.0283,3.028,3.0281,3.0278,3.0281,3.028,3.0279,3.0264,3.0263,3.0284,3.0284,3.0284,3.0284,3.0284,3.0284,3.0328,3.0331,3.0326,3.0328,3.0324,3.0324,3.0322,3.032,3.0316,3.0316,3.0314,3.031,3.0305,3.0302,3.0299,3.0297,3.0297,3.0301,3.0298,3.0283,3.0281,3.0278,3.0277,3.0301,3.0301,3.0313,3.0313,3.0313]}]]